WGS F1 (USA 195)

Last updated on Tue Sep 22 2026 00:03:11 GMT+0000 (Coordinated Universal Time)

1 32258U 07046A 26264.48066398 -.00000271 00000+0 00000+0 0 9990 2 32258 0.0161 121.2863 0000406 56.3581 313.2544 1.00271058 53308
UTC large
Height (km)
Speed (km/s)
/
Latitude / Longitude
Inclination (degrees)
Orbital Period (minutes)
Azimuth
Elevation
Range (km)
Doppler Factor

Next 0 passes for location: London (51.5072 / 0.1276)

No passes found over London.
WGS F1 (USA 195)